Location: Alladorf
(49.9620°N, 11.3790°E)
Time: 19:37:38
(UTC+00:00)

Gbstr 26 Del rocket - Pass Details

Date: 29 November 2020
Orbit: 493 x 1263 km, 51.8° (Epoch: 25 January)

Event Time Altitude Azimuth Distance (km) Brightness Sun altitude
Exits shadow 04:43:24 38° 220° (SW) 779 3.3 -19.4°
Maximum altitude 04:43:36 38° 212° (SSW) 775 3.4 -19.4°
Drops below altitude 10° 04:47:13 10° 143° (SE) 1,756 6.1 -18.8°
Sets 04:49:36 0° 135° (SE) 2,712 7.3 -18.4°
